Pasco, WA
on Friday, November 23, 2012

Friday
Previous Day Next Day
Daily Summary
 ActualAverageRecord
Temperature
Mean Temperature °F 39°F  
Max Temperature 44°F 46°F 70°F (2011)
Min Temperature 32°F 31°F -5°F (2010)
Degree Days
Heating Degree Days 27 26  
Month to date heating degree days 452 516  
Since 1 July heating degree days 896 1034  
Cooling Degree Days 0 0  
Month to date cooling degree days 0 0  
Year to date cooling degree days 788 710  
Moisture
Dew Point 36°F   
Average Humidity 89    
Maximum Humidity 96    
Minimum Humidity 82    
Precipitation
Precipitation 0.00 in in 0.44 in (1949)
Month to date precipitation 0.89  
Year to date precipitation 8.35  
Snow
Snow 0.00 in in in ()
Snow Depth 0.00 in   
Wind
Wind Speed 3 mph   
Max Wind Speed 8 mph   
Max Gust Speed 9 mph   
Visibility 10 miles   
Events Rain   

Key: T is trace of precipitation, MM is missing value
Source: NWS Daily Summary
Time(PST)TemperatureDew PointHumidity Pressure Visibility Wind DirectionWind SpeedGust SpeedPrecipitationEvents Conditions
12:53 AM 36.0°F 34.0°F 93% 30.37 in 10.0 miles NW 3.5 mph - N/A   Clear
1:53 AM 35.1°F 33.1°F 92% 30.36 in 10.0 miles NNW 3.5 mph - N/A   Clear
2:53 AM 35.1°F 33.1°F 92% 30.35 in 10.0 miles NNW 4.6 mph - N/A   Clear
3:53 AM 34.0°F 32.0°F 92% 30.34 in 10.0 miles Calm Calm - N/A   Clear
4:53 AM 34.0°F 32.0°F 92% 30.32 in 10.0 miles Calm Calm - N/A   Clear
5:53 AM 33.1°F 30.9°F 92% 30.32 in 10.0 miles North 3.5 mph - N/A   Clear
6:53 AM 33.1°F 32.0°F 96% 30.30 in 10.0 miles Calm Calm - N/A   Clear
7:53 AM 33.1°F 32.0°F 96% 30.31 in 10.0 miles Calm Calm - N/A   Clear
8:53 AM 35.1°F 33.1°F 92% 30.30 in 10.0 miles Calm Calm - N/A   Clear
9:53 AM 37.0°F 35.1°F 93% 30.30 in 10.0 miles Calm Calm - N/A   Clear
10:53 AM 39.0°F 36.0°F 89% 30.27 in 10.0 miles ESE 5.8 mph - N/A   Clear
11:53 AM 41.0°F 37.0°F 86% 30.25 in 10.0 miles East 3.5 mph - N/A   Mostly Cloudy
12:53 PM 43.0°F 37.9°F 82% 30.22 in 10.0 miles East 4.6 mph - N/A   Overcast
1:53 PM 43.0°F 37.9°F 82% 30.19 in 10.0 miles East 6.9 mph - N/A   Clear
2:53 PM 43.0°F 37.0°F 80% 30.18 in 10.0 miles ESE 5.8 mph - N/A   Mostly Cloudy
3:53 PM 43.0°F 37.0°F 80% 30.17 in 10.0 miles ESE 3.5 mph - N/A   Overcast
4:53 PM 43.0°F 37.0°F 80% 30.15 in 10.0 miles Calm Calm - 0.00 in Rain Light Rain
5:53 PM 43.0°F 37.9°F 82% 30.14 in 10.0 miles Calm Calm - 0.00 in Rain Light Rain
6:53 PM 42.1°F 39.9°F 92% 30.14 in 10.0 miles Calm Calm - 0.01 in Rain Light Rain
7:53 PM 42.1°F 39.9°F 92% 30.14 in 10.0 miles Calm Calm - 0.02 in Rain Light Rain
8:53 PM 43.0°F 41.0°F 93% 30.13 in 10.0 miles SE 5.8 mph - 0.04 in Rain Light Rain
9:53 PM 44.1°F 41.0°F 89% 30.12 in 10.0 miles ESE 3.5 mph - 0.01 in Rain Light Rain
10:53 PM 45.0°F 42.1°F 90% 30.12 in 10.0 miles SE 8.1 mph - 0.03 in Rain Light Rain
11:53 PM 46.9°F 43.0°F 86% 30.13 in 10.0 miles South 8.1 mph - 0.03 in Rain Light Rain
Moon Phase
Nov. 23 Nov. 28 Dec. 06 Dec. 13 Dec. 20
Sunrise:07:09 AM (PST) Moon Rise:01:45 PM (PST)11/23
Sunset:04:16 PM (PST) Moon Set:02:19 AM (PST)11/23

Copyright © 2014 The Weather Underground, Inc.